Central Park, NY

7:23 AM EDT on June 21, 2018 (GMT -0400)
Central Park

Weather History for KNYC - September, 2001

Change the Weather History Date:

Friday, September 14, 2001

  Actual Average Record
Temperature  
Mean Temperature 61 °F 69 °F  
Max Temperature 68 °F 76 °F 93 °F (1931)
Min Temperature 53 °F 62 °F 46 °F (1975)
Degree Days  
Heating Degree Days 4 1  
Month to date heating degree days 5  
Since 1 July heating degree days 7  
Cooling Degree Days 0 5  
Month to date cooling degree days 88  
Year to date cooling degree days 1042  
Growing Degree Days 11 (Base 50)    
Moisture  
Dew Point 53 °F    
Average Humidity 88    
Maximum Humidity 97    
Minimum Humidity 65    
Precipitation  
Precipitation 1.90 in 0.14 in 3.82 in (1944)
Month to date precipitation 1.87  
Year to date precipitation 35.11  
Snow  
Snow 0.00 in 0.00 in 0.00 in (2002)
Month to date snowfall 0.0  
Since 1 July snowfall 0.0  
Snow Depth -    
Sea Level Pressure  
Sea Level Pressure 30.13 in    
Wind  
Wind Speed 7 mph (NE)    
Max Wind Speed 12 mph    
Max Gust Speed 25 mph    
Visibility 9 miles    
Events Rain    
T = Trace of Precipitation, MM = Missing Value Source: NWS Daily Summary

Daily Weather History Graph

Daily Weather History Graph

Search for Another Location

Airport or City:

Astronomy

Sep. 14, 2001 Rise Set
Actual Time 6:35 AM EDT 7:06 PM EDT
Civil Twilight 6:08 AM EDT 7:33 PM EDT
Nautical Twilight 5:35 AM EDT 8:06 PM EDT
Astronomical Twilight 5:02 AM EDT 8:39 PM EDT
Moon 2:45 AM EDT (9/14) 5:49 PM EDT (9/14)
Length of Visible Light 13h 25m
Length of Day
12h 30m
Waning Crescent, 11% of the Moon is Illuminated
Sep 14
Waning Crescent
Sep 17
New
Sep 24
First Quarter
Oct 2
Full
Oct 10
Last Quarter

Hourly Weather History & Observations

Time (EDT) Temp. Dew Point Humidity Pressure Visibility Wind Dir Wind Speed Gust Speed Precip Events Conditions
12:51 AM 69.1 °F 57.0 °F 65% 30.02 in 10.0 mi NNE 8.1 mph - N/A   Mostly Cloudy
1:51 AM 60.1 °F 59.0 °F 96% 30.04 in 10.0 mi Variable 6.9 mph 16.1 mph 0.38 in   Scattered Clouds
2:51 AM 60.1 °F 57.9 °F 93% 30.04 in 10.0 mi Variable 4.6 mph - 0.05 in   Overcast
3:51 AM 57.9 °F 57.0 °F 97% 30.05 in 2.5 mi NNE 9.2 mph - 0.30 in Rain Rain
4:51 AM 57.9 °F 55.9 °F 93% 30.05 in 10.0 mi NNE 5.8 mph - 0.13 in   Overcast
5:51 AM 57.9 °F 55.0 °F 90% 30.07 in 10.0 mi NNE 8.1 mph 19.6 mph N/A   Overcast
6:51 AM 57.9 °F 57.0 °F 97% 30.06 in 9.0 mi East 9.2 mph - 0.16 in Rain Light Rain
7:51 AM 55.9 °F 55.0 °F 97% 30.12 in 2.5 mi NE 5.8 mph 18.4 mph 0.19 in Rain Rain
8:51 AM 54.0 °F 53.1 °F 97% 30.14 in 2.5 mi NE 8.1 mph 25.3 mph 0.35 in Rain Rain
9:51 AM 53.1 °F 52.0 °F 96% 30.14 in 6.0 mi ENE 9.2 mph 20.7 mph 0.20 in Rain Light Rain
10:51 AM 54.0 °F 53.1 °F 97% 30.16 in 6.0 mi ENE 11.5 mph 25.3 mph 0.06 in Rain Light Rain
11:51 AM 54.0 °F 51.1 °F 90% 30.16 in 10.0 mi NE 5.8 mph 23.0 mph 0.02 in Rain Light Rain
12:51 PM 54.0 °F 51.1 °F 90% 30.16 in 8.0 mi NE 6.9 mph 17.3 mph 0.03 in Rain Light Rain
1:51 PM 54.0 °F 53.1 °F 97% 30.17 in 10.0 mi North 4.6 mph - 0.02 in   Overcast
2:51 PM 54.0 °F 52.0 °F 93% 30.17 in 10.0 mi NNE 6.9 mph - 0.01 in Rain Light Rain
3:51 PM 55.9 °F 51.1 °F 84% 30.16 in 10.0 mi North 5.8 mph - 0.00 in   Overcast
4:51 PM 57.9 °F 48.9 °F 72% 30.16 in 10.0 mi NE 6.9 mph - N/A   Overcast
5:51 PM 59.0 °F 48.9 °F 69% 30.15 in 10.0 mi NE 8.1 mph - N/A   Clear
6:51 PM 57.9 °F 50.0 °F 75% 30.16 in 10.0 mi Variable 3.5 mph - N/A   Clear
7:51 PM 55.0 °F 50.0 °F 83% 30.16 in 10.0 mi Variable 3.5 mph - N/A   Clear
8:51 PM 55.0 °F 52.0 °F 89% 30.17 in 10.0 mi Calm Calm - N/A   Scattered Clouds
9:51 PM 55.0 °F 50.0 °F 83% 30.19 in 10.0 mi Calm Calm - N/A   Mostly Cloudy
10:51 PM 57.0 °F 51.1 °F 81% 30.19 in 10.0 mi NNW 3.5 mph - N/A   Mostly Cloudy
11:51 PM 57.0 °F 50.0 °F 77% 30.19 in 10.0 mi Variable 3.5 mph - N/A   Overcast